Wind_Gust
11 10 10 10 10 10 10 9 10 11 11 10 10 11 12 12 12 11 11 15 15 16 16 16 18 19 19 21 20 18 17 19 18 18 18 20 22 22 22 22 20 20 21 23 19 19 20 20 22 22 18 16 14 14 14 15 16 17 18 19 19 17 20 22 23 24 16 9 10 15 14 15 19 20 20 19 15 18 16 17 17 18 18 18 20
10 10 9 10 10 10 10 9 10 11 10 10 10 8 10 11 9 9 11 13 14 16 16 15 15 17 19 20 19 17 17 17 18 19 20 20 20 20 23 24 22 21 21 21 23 22 20 21 22 24 23 20 16 17 16 16 17 18 18 19 20 20 20 25 22 22 24 11 12 9 12 16 20 17 22 21 18 17 21 18 16 18 19 18 18
9 10 10 10 10 9 9 10 10 10 11 11 11 10 9 8 9 9 10 12 13 13 14 14 14 14 13 14 16 17 18 18 18 19 20 21 22 22 21 21 21 21 22 23 23 23 23 22 22 23 24 25 21 17 17 19 18 19 20 19 20 21 21 23 23 24 21 22 14 14 15 17 22 19 20 21 21 23 24 21 20 18 17 18 19
9 9 8 9 8 8 9 10 11 11 12 12 12 11 11 9 9 10 8 11 14 13 12 12 13 14 14 15 16 17 19 19 19 19 19 20 22 23 23 22 20 20 20 21 22 22 22 23 22 23 25 26 25 21 16 18 18 18 20 19 19 21 21 22 24 23 22 23 15 17 17 17 21 15 20 19 20 19 21 21 19 20 18 18 18
9 8 7 7 6 7 7 7 8 10 10 11 12 11 11 11 11 11 10 12 13 13 14 12 13 14 16 15 15 17 19 19 20 21 21 20 20 22 23 22 21 22 21 21 19 20 21 22 24 23 23 26 25 24 19 18 19 18 19 19 20 19 19 20 22 23 22 22 16 16 14 18 19 16 17 21 16 16 18 21 22 23 21 19 17
8 8 7 7 6 6 5 5 6 7 8 9 10 10 11 11 11 11 11 12 12 13 13 14 15 14 14 14 14 15 18 19 20 21 22 22 21 20 20 19 20 22 21 21 20 19 19 20 22 22 23 24 25 26 25 22 22 20 19 19 19 19 20 19 20 21 22 21 18 17 12 18 14 14 18 21 21 19 15 15 12 15 20 18 16
7 7 6 6 6 6 6 5 5 6 7 8 9 9 11 10 12 12 12 11 13 14 14 14 14 13 14 14 15 15 17 19 22 23 23 22 23 22 21 20 20 21 20 23 22 18 18 18 20 20 20 22 24 25 26 27 26 24 22 20 19 20 22 21 20 21 22 21 19 17 18 18 20 20 18 20 21 23 24 18 15 15 19 23 22
7 6 6 7 7 7 7 6 6 7 6 7 8 8 9 10 10 11 11 13 13 14 14 13 13 13 14 13 14 15 15 18 21 23 24 25 25 22 20 21 22 22 23 23 24 21 21 23 21 21 21 21 23 26 26 27 28 28 25 21 20 21 20 20 21 21 21 21 22 20 20 18 15 12 13 15 15 13 19 25 24 20 21 22 23
7 7 6 7 7 6 7 7 8 8 8 7 8 9 10 9 9 9 10 11 12 11 11 11 12 13 13 14 14 14 15 18 21 25 27 26 25 22 21 21 23 24 24 24 24 24 23 23 22 23 28 31 27 24 24 25 29 29 28 25 21 21 21 17 20 22 22 22 21 19 19 19 19 20 19 21 25 26 26 21 24 23 22 20 19
9 8 7 6 6 7 8 8 9 8 9 9 8 8 9 9 9 9 9 9 9 10 10 10 12 13 14 15 14 14 16 17 28 31 26 30 24 20 19 19 21 22 26 25 24 24 24 24 26 28 27 26 23 25 26 27 28 27 30 28 28 24 21 20 20 22 22 24 25 21 22 23 21 23 23 23 24 20 17 19 22 17 14 15 15
8 8 7 5 5 6 8 8 8 10 8 9 8 8 9 10 10 10 10 10 11 10 11 13 13 13 14 14 15 15 16 21 26 24 25 30 27 21 19 19 19 21 24 24 25 27 27 26 25 25 25 23 28 25 24 25 26 30 30 28 26 33 29 24 23 24 25 26 24 23 24 23 23 23 22 23 24 25 24 26 24 18 23 22 26
9 8 6 6 6 6 6 7 9 9 9 9 8 7 8 9 9 9 10 11 11 10 12 12 11 12 13 14 14 15 15 17 24 25 26 27 26 25 17 19 20 20 23 24 24 26 27 28 25 24 23 27 29 27 27 26 27 28 29 29 28 28 27 30 24 20 23 25 25 27 24 26 24 21 23 21 22 18 20 23 24 26 26 27 26
8 8 7 7 6 6 6 6 6 7 7 6 6 7 8 8 8 9 10 8 8 11 10 11 12 12 13 14 15 15 13 18 22 25 25 26 27 23 16 19 19 21 24 24 23 25 27 27 27 26 26 30 29 25 26 31 31 32 27 27 24 25 26 27 27 28 16 23 24 24 29 26 22 26 26 29 23 25 23 23 23 23 24 26 26
7 7 7 6 6 6 6 6 6 5 5 6 6 7 7 6 6 6 7 9 10 10 11 12 11 13 13 13 13 14 14 18 23 24 24 26 26 20 16 18 17 18 22 24 24 25 24 27 27 27 27 27 25 27 29 29 29 30 29 26 25 26 22 25 26 27 24 22 23 28 25 20 27 23 23 22 26 28 26 26 24 26 26 31 30
6 6 6 5 6 6 7 7 7 6 6 6 6 6 5 6 6 6 7 8 9 10 10 10 12 12 13 13 12 15 16 19 22 24 25 26 26 17 18 18 18 19 19 21 22 24 24 26 24 25 27 27 27 30 32 30 30 29 27 26 26 26 26 22 20 19 20 23 23 24 22 24 25 22 21 23 26 27 29 30 31 31 31 14 9
6 5 6 6 5 5 6 6 6 6 6 6 7 6 5 5 6 6 6 8 7 8 10 9 11 12 12 12 13 16 18 19 22 24 26 26 25 19 19 19 20 21 21 20 22 23 23 24 24 25 27 27 28 30 32 32 28 29 28 26 27 27 27 19 19 19 22 23 23 22 21 23 21 23 19 21 22 17 12 10 11 12 15 18 21
6 6 6 5 5 5 5 6 6 6 6 7 7 7 7 8 8 7 8 7 8 10 10 10 9 11 13 13 13 16 17 19 21 23 24 26 21 21 20 21 21 22 21 21 23 23 23 25 28 27 27 27 30 33 32 31 26 28 28 27 27 26 29 24 19 21 22 23 23 22 21 20 21 22 21 24 21 19 18 18 21 23 22 22 18
4 6 6 6 6 5 5 6 6 6 6 7 7 6 6 6 8 6 7 7 9 9 8 10 11 9 10 13 14 14 16 19 21 22 24 25 22 21 20 21 22 22 22 21 20 21 23 31 30 27 27 28 32 33 33 32 27 28 27 26 28 26 27 24 19 16 16 18 21 22 21 20 21 23 22 22 22 19 25 29 24 24 26 26 26
5 6 6 6 6 6 6 6 6 6 7 6 7 6 5 6 5 6 8 7 7 7 9 9 11 11 10 10 15 16 15 17 20 22 23 24 25 19 20 20 23 25 25 24 21 21 25 23 28 28 28 31 33 32 32 31 26 27 27 26 25 26 29 25 23 17 13 11 14 16 18 16 20 20 21 23 25 24 28 25 22 28 28 25 22
5 2 3 4 6 6 5 6 5 6 7 6 7 6 5 6 9 8 8 8 8 8 7 9 10 12 11 11 14 14 15 17 20 23 23 23 23 23 18 21 23 26 24 27 29 25 23 23 25 22 29 32 32 32 31 30 28 27 26 26 25 30 27 24 22 18 15 17 18 18 20 18 19 18 18 20 24 28 26 24 23 24 22 23 24
4 3 4 5 6 6 5 6 7 4 5 6 5 6 6 7 7 8 7 8 8 10 10 9 10 12 12 12 11 14 16 17 19 22 22 23 23 20 18 20 21 22 22 24 22 23 25 25 24 24 32 33 32 32 30 30 29 26 23 26 28 34 31 28 25 15 17 13 13 12 13 12 15 16 17 19 21 21 21 20 22 23 24 24 24
5 5 6 6 5 5 5 3 5 6 4 6 8 7 5 5 6 5 6 6 8 10 10 11 12 12 12 12 12 13 15 18 18 18 21 23 22 23 19 19 21 20 22 21 22 22 24 25 26 29 33 31 31 30 31 30 31 26 27 28 32 32 30 23 21 14 11 9 8 6 8 10 12 11 11 14 16 18 19 20 20 20 22 24 28
7 6 6 6 5 4 4 4 4 5 6 5 6 6 4 6 6 6 7 8 8 10 11 11 12 14 14 14 12 13 14 15 19 19 20 22 23 21 22 20 22 21 19 21 23 24 22 24 25 30 31 30 30 29 28 31 24 29 33 31 32 33 21 12 8 9 10 9 8 8 6 5 7 10 11 9 7 7 9 7 8 11 10 6 7
8 8 7 6 6 4 3 3 3 3 5 6 6 6 5 4 5 7 6 7 8 10 11 11 12 13 15 17 17 16 15 15 14 19 21 22 21 21 21 22 23 22 19 17 20 22 23 24 27 31 30 30 29 28 26 28 33 32 32 32 29 24 25 22 17 12 11 11 11 11 10 11 17 16 13 12 13 14 16 16 15 15 16 17 18
10 8 6 6 6 4 4 4 4 3 2 4 6 4 4 4 7 6 6 7 7 9 11 11 12 12 13 16 17 18 17 16 16 18 21 21 20 21 21 22 23 23 24 20 20 23 22 26 28 28 28 28 29 25 21 25 32 31 33 31 27 27 26 24 22 19 19 18 15 12 14 18 18 17 17 17 14 15 17 20 21 20 22 25 24
10 7 6 5 3 4 6 4 5 4 4 4 4 2 4 3 4 5 5 7 6 8 10 10 12 13 13 14 16 17 17 16 18 18 14 15 14 19 21 20 22 23 21 20 23 24 24 25 26 26 23 26 28 26 25 29 28 31 32 32 28 28 27 27 26 25 21 18 17 15 15 14 16 14 15 13 23 16 15 18 19 18 17 23 26
8 6 6 5 4 3 3 5 5 5 4 3 3 3 2 2 2 3 3 7 7 8 9 8 11 13 14 15 16 16 17 17 18 19 18 18 18 18 19 20 18 17 21 22 19 22 26 24 24 22 20 22 23 21 23 25 30 31 30 29 28 27 25 26 25 26 24 22 20 16 14 14 13 17 19 15 20 18 14 11 18 15 16 18 24
9 6 5 4 5 4 3 2 3 5 3 2 2 2 2 1 2 2 3 3 4 10 9 10 10 10 12 13 14 16 18 18 19 20 20 18 18 17 17 17 19 19 21 22 21 22 22 16 21 23 25 27 28 26 27 26 25 27 29 28 28 28 27 25 25 28 26 21 20 19 19 19 20 16 18 19 21 19 15 15 15 16 10 16 22
8 6 5 6 5 3 4 2 2 4 3 2 1 2 2 3 4 6 6 7 4 3 7 9 8 7 8 9 11 14 15 17 18 14 19 17 20 19 18 19 19 19 19 20 20 20 22 26 27 30 29 28 27 27 27 28 27 26 26 28 28 29 29 29 29 28 25 25 25 25 25 21 19 18 18 22 21 20 15 17 15 18 18 21 22
8 6 6 7 4 5 5 5 3 2 2 2 2 3 5 8 7 5 8 5 9 8 7 6 8 9 10 10 4 7 11 14 16 20 20 20 20 19 17 18 19 20 20 20 15 20 24 24 25 25 27 27 28 28 29 27 27 28 27 22 28 28 27 26 26 25 25 26 25 27 25 21 24 23 21 20 20 21 19 16 18 16 23 21 23
7 6 7 6 5 5 4 5 5 4 2 2 1 1 8 7 7 11 11 8 7 9 10 13 12 9 6 7 11 10 12 15 18 18 20 20 21 19 18 18 20 20 19 19 20 23 24 24 25 25 25 24 26 26 26 26 26 26 26 25 25 27 26 26 24 21 23 25 26 25 23 23 22 21 21 19 20 19 21 19 21 23 22 21 25
10 7 6 5 4 5 4 4 4 5 3 2 2 2 2 4 9 6 7 9 9 9 11 11 10 8 7 4 6 10 12 14 17 18 19 20 20 20 18 18 19 19 18 13 17 20 19 20 22 23 23 24 25 24 25 25 25 25 25 27 27 25 26 25 24 24 24 23 22 22 22 23 22 21 20 19 19 20 19 21 22 22 21 23 23
8 5 4 4 6 6 6 4 3 3 5 3 2 1 1 1 2 7 12 5 7 10 11 11 10 8 8 8 7 7 9 12 16 18 20 20 20 19 19 19 18 18 15 16 16 17 18 18 19 20 21 22 22 22 23 23 24 25 24 24 24 24 23 23 22 24 23 24 24 23 20 19 17 17 18 18 18 19 19 20 19 21 21 24 23
8 8 6 6 8 8 5 4 4 3 1 2 2 2 2 2 5 2 6 11 12 7 6 5 5 7 8 8 9 11 12 13 14 16 18 19 20 19 16 20 19 19 15 15 14 16 16 18 18 18 19 18 19 20 21 22 22 22 22 22 21 21 21 21 24 24 22 23 22 22 22 20 18 18 17 17 16 17 19 17 18 21 21 20 20
6 5 5 5 8 7 5 5 7 4 5 4 4 2 1 1 1 2 3 5 6 5 6 10 8 6 6 6 10 11 12 13 14 15 16 17 19 18 15 18 17 19 19 16 16 15 16 16 17 17 17 18 18 18 19 20 21 21 21 21 21 21 21 22 22 21 21 21 22 21 20 21 19 17 16 17 17 18 17 17 17 16 17 17 17
6 6 6 5 5 6 7 7 7 8 7 7 7 6 4 2 1 3 2 1 2 4 6 4 4 7 8 7 10 11 12 13 13 14 15 16 16 14 17 16 16 16 16 17 16 16 14 14 14 15 15 16 16 16 15 17 18 18 18 19 20 19 20 21 21 20 18 18 18 19 19 20 19 17 15 17 16 15 15 15 14 14 14 14 14
6 6 5 5 5 5 6 6 7 6 5 4 4 6 4 3 1 1 2 2 4 5 5 7 9 10 7 6 8 11 12 13 13 12 15 16 16 14 12 12 13 14 14 15 16 15 16 15 14 14 14 14 15 14 14 14 15 15 14 18 17 19 19 18 19 17 19 20 20 20 19 19 17 16 15 16 15 15 14 13 14 14 14 14 12
6 8 6 6 4 3 4 6 7 4 3 3 3 1 3 2 1 1 1 3 3 4 4 6 5 2 5 8 9 7 10 9 12 13 13 13 16 14 13 12 12 12 13 14 14 14 15 14 14 14 14 13 14 14 14 14 13 13 15 16 17 17 17 20 18 18 17 17 18 17 16 16 15 14 14 15 14 13 14 13 13 14 15 16 14
2 4 3 6 6 5 6 6 5 4 4 2 3 4 1 1 1 1 1 2 4 4 2 4 4 2 4 6 9 9 10 12 13 12 11 11 9 10 10 11 12 14 14 13 13 13 13 14 15 14 13 13 13 13 12 13 13 14 13 14 17 17 19 17 18 16 16 16 15 14 14 15 13 13 11 12 12 11 12 12 12 12 14 14 14
4 4 4 4 4 4 5 7 8 6 5 4 3 3 1 2 2 3 2 3 5 5 3 4 3 3 5 3 5 6 8 8 7 9 8 10 10 10 9 10 11 10 11 13 13 13 13 13 13 14 14 13 13 13 12 12 12 13 13 14 14 17 17 15 15 15 14 12 12 13 13 13 12 10 11 11 9 10 11 11 11 11 11 11 12
8 6 4 4 6 5 3 4 6 9 6 6 4 2 5 5 3 3 3 3 3 4 4 4 5 6 5 5 6 3 2 4 7 7 8 7 9 8 9 9 9 11 11 11 12 12 12 12 13 13 13 13 13 12 12 12 13 13 13 14 14 15 15 16 16 15 15 13 12 12 12 11 11 12 12 10 7 9 10 10 11 11 11 12 12
7 5 4 5 7 6 5 6 9 4 4 3 3 5 5 4 5 4 4 4 3 3 3 4 4 6 6 7 7 4 3 5 4 6 8 8 7 9 8 8 7 7 9 9 10 12 12 12 12 11 12 12 13 12 12 13 12 12 12 13 14 14 15 15 15 15 14 13 12 12 11 11 11 11 11 7 10 10 11 11 10 11 11 11 11
8 8 9 8 8 7 9 10 6 4 3 2 5 5 4 4 6 5 4 2 3 2 2 2 3 3 5 5 5 5 4 6 5 7 6 8 8 8 8 8 9 8 8 7 7 8 9 8 10 10 9 10 10 10 10 10 10 11 12 12 13 13 14 15 16 17 15 13 12 11 11 11 11 10 10 10 10 10 10 10 10 10 10 10 9
7 6 6 8 8 5 3 3 3 4 3 4 2 2 4 7 4 2 3 3 4 3 4 5 5 5 6 5 4 4 5 7 6 6 7 8 9 8 9 9 9 10 10 10 9 9 9 9 10 10 9 9 9 9 9 9 9 10 11 11 12 13 14 14 14 14 14 12 11 11 11 10 10 10 10 10 9 11 10 10 10 9 9 9 9
6 6 8 7 6 5 2 2 8 4 4 3 3 4 6 7 7 4 3 4 5 4 5 6 6 6 6 7 8 6 6 6 6 6 7 7 8 9 9 9 8 9 9 10 8 8 9 10 9 8 10 10 9 9 9 7 7 7 8 9 10 12 12 12 10 10 9 9 12 12 11 9 10 9 9 8 8 8 10 8 7 6 8 7 7
6 7 9 9 7 5 3 6 4 5 9 9 7 6 6 5 4 3 4 4 5 5 6 6 6 7 8 9 8 6 6 5 7 7 7 7 8 9 8 8 8 8 8 8 8 6 8 8 9 9 8 8 9 9 8 8 8 8 7 7 6 6 6 8 8 9 11 10 10 9 9 10 10 9 7 7 7 8 8 8 8 9 8 7 6
7 6 11 8 9 7 5 4 6 6 5 7 8 10 9 9 7 5 4 7 5 5 6 7 6 8 9 9 9 9 8 6 7 6 7 7 7 9 8 7 9 9 9 9 6 5 7 9 9 8 8 6 7 8 9 9 9 9 7 8 8 11 10 10 8 7 8 8 7 7 8 8 9 9 11 9 8 8 8 9 7 6 7 7 7
7 6 7 10 8 8 6 5 6 6 6 8 10 11 11 9 7 7 7 7 6 6 7 7 7 8 8 9 9 9 8 7 7 7 8 8 8 8 7 6 8 8 8 9 8 7 7 7 9 9 8 7 8 8 8 9 9 9 9 8 9 9 12 10 9 10 9 9 8 7 7 9 8 9 8 9 7 7 10 8 6 8 7 7 7
7 7 7 9 10 11 8 8 9 8 11 11 10 9 9 7 9 8 10 8 8 8 7 9 10 7 8 10 8 9 7 6 7 9 9 9 8 8 7 7 7 9 8 9 10 8 9 9 8 8 7 5 6 6 6 7 8 9 9 9 10 12 12 12 8 11 10 9 9 9 8 8 9 8 8 8 8 7 8 7 7 6 6 7 8
8 9 10 10 10 11 8 8 9 10 9 9 11 11 11 8 8 10 10 8 7 7 7 7 8 10 9 8 8 9 8 9 10 10 10 9 9 8 6 7 7 8 9 7 9 9 9 8 7 7 7 5 5 4 5 6 6 7 8 10 11 12 12 13 11 12 12 8 9 7 6 7 7 8 8 7 6 8 9 7 6 7 6 7 6
10 8 9 10 10 8 7 8 8 8 9 10 11 11 11 11 12 11 11 9 10 11 10 10 10 7 8 9 7 7 8 10 10 9 10 9 9 7 7 7 9 8 7 8 9 9 8 8 9 8 6 5 4 5 5 5 5 5 8 10 11 11 12 11 12 11 12 8 7 9 9 9 8 10 10 10 9 9 8 6 7 7 6 5 4
Wind_Speed
7 6 6 6 6 5 5 5 6 6 7 6 5 6 7 7 7 6 6 8 7 8 8 9 10 10 10 10 9 9 9 10 9 9 9 10 10 10 11 12 12 10 11 13 11 11 11 10 11 13 11 10 8 7 7 8 9 9 9 9 9 9 10 11 11 12 6 4 5 7 8 8 9 11 11 10 9 10 11 10 10 10 10 9 11
6 6 6 6 5 5 6 5 6 6 7 7 6 5 6 6 5 5 7 7 7 7 8 7 7 7 7 8 9 10 10 10 10 10 11 11 11 9 10 12 11 12 11 12 13 11 11 12 12 13 13 12 9 9 8 9 9 9 9 9 10 10 10 10 11 11 12 5 6 5 6 9 10 10 12 12 11 10 12 10 8 10 10 9 9
6 6 6 5 5 5 6 6 6 7 7 7 7 6 5 5 5 5 6 6 6 6 7 7 7 7 7 8 9 10 11 10 10 11 11 12 12 12 12 12 12 11 12 12 12 12 13 12 13 13 12 14 13 9 9 10 10 10 11 10 11 11 11 12 10 11 12 10 7 7 7 8 11 10 12 11 11 12 13 12 10 9 8 10 10
6 6 5 5 4 5 6 6 7 7 7 7 8 7 6 6 6 6 5 6 7 7 7 7 8 8 8 9 9 10 11 11 11 11 11 11 12 12 13 13 12 11 12 11 11 11 12 12 12 13 13 13 14 12 9 9 10 10 12 11 11 12 11 11 13 11 9 11 7 8 8 9 9 8 10 10 11 10 11 10 10 11 10 10 10
6 5 4 4 4 4 4 5 5 5 5 6 7 7 7 7 6 7 6 7 7 7 8 7 7 8 9 9 9 10 11 11 12 12 12 11 11 11 11 11 11 12 12 12 12 11 11 11 12 12 12 12 13 13 11 11 11 9 10 10 11 10 10 11 12 11 11 12 7 7 7 7 8 8 9 11 8 8 10 11 12 12 11 10 9
5 5 4 4 4 4 4 4 4 4 4 5 6 6 7 7 7 7 7 7 7 8 8 8 8 8 8 8 8 9 10 11 12 13 13 13 11 11 11 11 11 11 12 12 12 11 10 12 11 11 11 10 12 13 14 14 13 12 11 10 10 10 11 11 10 11 12 11 9 7 6 7 4 4 9 11 10 9 7 6 6 6 7 8 8
4 4 4 4 4 4 4 3 3 4 4 5 5 5 6 6 7 7 7 7 8 8 8 8 8 8 8 8 9 9 10 11 12 13 14 13 13 12 12 12 12 11 11 12 13 10 9 9 10 11 10 10 11 12 14 16 14 15 13 12 11 11 11 11 11 12 11 11 10 8 7 7 9 9 9 11 12 12 12 9 6 7 9 11 11
4 4 4 4 5 5 4 4 4 4 4 4 5 5 5 6 6 5 6 7 8 8 8 8 7 7 8 8 9 8 9 10 12 14 14 14 13 12 11 11 12 12 13 13 13 12 13 13 12 12 12 12 13 13 12 13 14 15 14 12 11 11 11 11 11 11 11 10 11 9 8 8 6 5 4 7 7 7 9 11 12 10 11 11 12
5 4 4 4 4 4 4 4 4 5 4 4 5 6 6 5 5 5 5 6 6 6 6 6 7 8 8 8 8 8 8 9 10 13 13 15 14 12 12 11 12 13 14 13 13 13 13 12 12 12 15 19 19 16 16 14 11 13 15 14 13 12 11 9 9 11 11 11 10 9 9 9 9 10 9 10 12 12 10 10 11 12 11 10 9
5 4 4 4 4 4 5 5 5 4 5 5 5 5 5 5 5 5 6 5 5 6 6 6 7 8 8 9 8 8 8 8 17 22 19 16 14 10 10 11 11 12 13 14 14 14 14 13 13 21 21 20 17 18 18 18 19 14 12 12 15 14 12 11 9 10 11 11 12 10 10 11 9 11 11 11 11 9 10 10 11 9 8 6 4
5 4 4 3 4 4 5 5 5 5 4 5 5 5 5 5 5 6 6 6 7 6 6 8 8 8 8 9 9 8 8 10 20 19 20 23 17 12 11 11 11 11 13 13 14 15 14 14 13 16 17 18 17 19 17 19 20 22 23 20 16 14 16 14 12 10 10 11 10 10 12 12 11 11 11 10 12 14 12 13 12 9 11 10 8
5 4 3 4 4 4 4 4 5 5 5 5 5 4 4 5 6 6 6 7 7 6 7 7 7 7 7 8 8 8 8 13 19 20 21 21 20 13 9 10 10 10 12 13 12 13 15 14 13 11 12 15 17 15 18 20 21 21 22 21 21 21 17 17 14 10 12 12 12 13 12 13 13 11 11 11 11 9 10 12 12 12 12 13 11
4 4 4 4 4 4 4 4 4 4 4 4 4 4 4 5 5 5 6 5 5 7 6 7 7 7 7 8 8 8 7 14 17 20 20 21 21 16 8 10 10 11 12 13 13 12 13 14 14 12 11 21 17 14 15 18 23 25 22 20 19 18 17 18 20 17 8 10 12 13 15 13 12 13 13 14 11 14 12 12 12 12 12 13 13
4 4 4 4 4 4 4 4 4 4 3 4 4 4 4 4 4 4 4 5 6 6 7 7 7 7 7 7 7 7 8 13 17 18 19 21 21 15 9 10 10 10 11 12 12 13 13 13 13 14 14 15 14 15 17 17 17 17 16 14 13 17 18 16 18 21 18 12 10 13 12 9 13 13 14 13 14 14 13 13 12 13 14 14 16
4 4 4 3 4 4 4 4 4 4 4 4 4 4 4 4 4 4 4 5 5 6 6 6 6 6 7 7 7 8 8 15 17 19 19 20 21 13 10 9 9 10 10 11 12 13 13 12 13 13 15 15 14 18 19 17 17 15 15 15 14 14 15 13 10 10 12 14 13 13 12 13 14 13 12 13 16 14 15 16 17 17 15 7 3
4 4 4 4 4 4 4 4 4 4 4 4 4 4 4 3 4 4 4 5 4 5 6 5 6 7 6 7 7 9 10 16 17 19 20 20 20 11 10 10 10 11 11 11 13 12 13 13 13 14 15 16 20 24 23 18 16 17 17 15 15 15 15 14 15 14 13 12 12 12 11 13 15 13 11 12 12 10 6 3 3 4 6 6 9
4 4 4 4 4 3 4 4 4 4 4 4 4 4 4 5 5 4 5 4 5 5 5 5 5 6 8 7 8 9 10 14 17 18 19 20 15 11 11 10 11 11 12 11 11 12 12 14 15 14 15 16 21 25 25 24 15 17 16 16 14 14 15 14 15 17 18 19 18 19 18 17 18 18 17 19 14 12 9 9 11 11 10 10 7
3 4 4 4 4 3 3 4 4 4 4 4 4 4 4 4 4 3 4 4 5 5 4 6 6 5 6 8 8 8 9 13 17 18 19 20 15 11 10 10 11 11 11 11 10 11 14 23 20 15 15 16 24 26 25 22 16 16 16 16 16 14 14 14 11 10 14 15 17 18 18 16 17 17 17 17 16 15 13 15 11 10 11 12 12
3 4 4 4 4 4 3 4 4 4 4 4 4 4 4 3 2 3 3 3 4 4 5 6 6 6 6 6 11 10 8 11 16 17 19 19 14 9 10 9 11 12 12 12 11 10 12 15 21 18 17 20 25 25 25 22 15 16 16 16 14 14 15 15 13 10 7 6 8 9 11 12 11 11 13 19 19 17 16 14 11 14 14 12 10
3 1 2 3 4 3 3 4 3 4 4 4 4 4 2 3 4 3 3 4 4 5 4 5 6 7 7 7 8 8 8 9 13 18 18 19 19 12 9 10 12 13 12 12 14 13 12 12 15 18 23 25 24 24 24 24 17 16 15 14 14 16 14 14 13 10 9 9 9 10 11 10 11 10 10 12 14 18 16 12 11 12 11 12 12
3 3 3 3 4 3 3 4 4 3 3 4 3 3 3 3 3 4 4 5 4 6 6 5 6 7 7 6 6 8 8 10 12 17 18 19 19 15 9 10 11 11 11 12 11 11 12 13 12 18 24 25 24 24 24 23 22 15 13 14 16 19 20 16 16 13 10 8 7 7 7 7 8 9 9 10 11 12 12 12 12 12 12 12 12
4 3 4 4 4 3 3 2 3 3 2 3 4 3 2 2 3 3 3 4 5 5 5 6 6 6 6 6 6 7 9 13 10 14 17 18 18 18 11 10 11 10 11 10 11 11 12 12 13 19 25 24 23 23 23 23 25 13 17 22 23 27 14 11 11 8 7 5 4 4 4 5 6 6 6 8 9 10 11 11 12 12 12 13 15
4 4 4 4 4 3 2 2 2 2 2 2 4 3 2 3 3 3 4 4 5 6 6 6 7 7 8 8 7 7 8 8 14 13 16 18 18 17 17 13 17 11 10 11 12 12 11 13 14 23 24 24 23 23 22 24 18 18 26 23 22 26 16 4 4 3 1 1 3 4 3 2 1 2 4 4 2 2 4 4 4 6 6 4 5
5 5 4 4 4 3 2 2 2 1 2 2 3 3 3 2 2 3 3 4 5 6 7 7 7 7 8 9 9 9 8 8 11 15 15 18 17 17 17 18 17 12 10 9 10 11 12 13 16 24 23 24 23 22 20 21 19 25 25 25 22 19 13 12 9 7 4 5 5 4 4 3 4 5 5 3 4 5 5 4 4 4 5 6 6
6 5 4 4 4 3 2 3 2 1 0 1 3 2 2 2 4 3 4 4 4 6 6 6 7 7 7 8 9 9 9 9 9 12 17 17 17 17 17 18 18 18 13 11 11 12 16 20 22 21 22 22 23 20 17 19 24 23 25 25 21 13 14 12 11 10 10 9 7 5 5 5 5 5 6 5 3 8 8 7 7 7 8 10 9
6 5 4 3 2 2 4 3 3 2 2 1 2 1 1 1 2 3 4 4 4 4 6 6 7 7 7 8 9 9 9 8 9 10 9 12 11 15 17 16 18 18 15 12 17 19 19 19 20 20 18 18 15 14 13 16 21 24 25 23 15 14 13 13 13 13 12 9 9 8 7 5 5 6 8 6 4 7 7 7 7 6 6 9 10
5 4 4 3 2 1 2 3 3 2 2 2 2 1 0 0 1 1 2 4 4 5 6 5 6 7 8 8 8 9 9 9 9 10 10 10 9 10 11 11 13 14 12 12 13 12 15 15 14 16 15 18 17 16 16 17 16 17 15 15 14 14 13 12 12 13 13 12 10 8 7 6 4 8 10 9 7 7 8 6 8 6 7 8 11
5 4 4 3 3 2 2 1 1 2 1 0 1 1 1 0 0 1 1 2 3 6 5 6 6 6 7 7 8 8 9 9 10 10 10 9 9 9 8 9 10 10 11 11 11 12 12 12 14 12 14 14 15 13 14 13 13 14 14 13 14 15 16 19 18 14 13 11 10 10 10 9 9 8 9 10 6 8 8 8 5 7 5 7 9
5 4 2 3 3 1 2 1 1 2 1 0 0 1 1 2 2 4 3 3 2 1 3 5 4 4 4 5 6 8 8 9 9 10 11 13 12 10 10 10 10 10 12 15 10 10 11 13 14 15 15 15 14 14 14 14 14 13 15 15 13 14 14 14 14 14 13 13 12 12 13 11 10 9 9 10 10 10 8 9 8 9 9 11 11
5 5 4 4 2 3 3 3 2 1 1 0 1 1 5 6 4 3 5 3 5 5 4 3 3 5 5 5 2 3 6 7 12 15 16 16 17 16 14 14 14 12 14 16 10 9 11 11 12 13 13 14 14 14 14 13 14 14 13 14 14 14 14 13 13 13 13 13 13 14 13 11 12 12 11 11 10 11 10 10 8 8 11 11 11
5 5 4 4 3 2 3 3 2 2 0 1 0 1 5 4 5 9 8 6 4 6 7 10 9 7 3 4 7 7 9 12 14 14 15 16 17 16 15 14 16 15 15 11 10 10 11 12 12 12 12 13 13 13 13 13 13 13 13 12 13 14 14 13 12 11 11 11 12 13 12 12 12 11 11 10 10 10 10 9 10 12 11 11 13
6 4 4 4 3 3 3 3 2 2 1 1 1 1 1 3 5 4 5 6 6 6 8 7 5 5 5 3 4 6 9 11 13 14 15 16 16 16 15 14 15 16 15 10 8 10 9 10 11 11 11 12 12 12 13 13 13 13 12 13 14 13 13 14 12 12 11 12 11 11 11 11 11 11 11 10 10 10 9 10 11 11 11 12 12
5 4 3 3 3 3 2 3 2 3 3 1 1 0 0 1 2 4 7 4 4 6 7 6 5 5 6 7 6 6 7 10 12 13 15 16 16 15 15 15 14 15 12 10 8 9 9 9 10 10 11 11 11 11 11 12 12 13 12 12 12 12 12 13 13 13 12 12 12 12 10 10 9 9 10 10 10 9 9 9 10 11 11 12 11
5 5 4 4 5 4 3 3 3 2 1 1 2 1 1 1 3 2 4 7 7 4 4 2 4 6 6 7 7 9 10 11 11 12 13 15 15 15 13 12 15 16 11 8 8 9 8 9 10 10 10 10 10 10 11 11 11 11 12 11 11 11 12 12 13 12 11 12 11 11 12 10 9 9 9 9 8 9 9 9 9 10 10 10 10
4 4 5 4 5 5 4 4 4 3 3 3 3 1 0 1 1 1 2 3 4 3 3 5 4 4 3 5 8 9 10 10 11 11 12 12 14 14 12 10 9 10 9 8 8 8 8 9 9 9 9 9 9 9 10 11 10 10 10 10 11 11 11 11 11 11 11 11 12 11 11 11 10 9 9 9 9 9 9 9 9 9 9 9 9
4 4 4 3 4 5 4 5 5 5 5 5 4 4 3 1 0 0 0 1 2 3 4 1 2 5 7 6 8 9 10 11 11 11 11 12 12 11 9 9 8 8 8 9 9 9 8 8 8 8 8 9 9 9 8 9 9 9 9 9 10 10 10 11 11 10 10 9 9 10 11 10 10 9 8 9 9 8 8 8 8 8 8 8 8
4 4 4 3 3 4 4 4 4 4 4 2 1 2 2 1 1 0 0 1 2 2 2 4 5 5 4 3 6 9 10 10 10 9 11 11 12 8 6 6 7 7 8 8 8 8 8 8 8 8 8 8 8 8 8 8 8 9 9 10 9 10 9 9 10 9 10 10 10 10 10 10 9 9 8 8 8 8 8 7 8 8 8 8 8
4 4 4 3 2 2 3 4 4 4 2 1 1 0 0 0 0 0 1 2 2 2 3 3 3 1 3 5 6 4 6 7 9 10 10 10 9 7 6 6 6 7 7 7 7 7 8 8 8 8 8 7 8 8 8 8 8 8 8 9 9 9 12 11 11 10 10 9 9 9 8 8 8 7 7 8 7 7 8 7 7 7 8 10 8
1 1 2 6 4 3 4 4 4 3 3 1 2 1 0 1 0 1 1 2 3 3 1 2 2 1 2 3 5 6 6 7 7 7 6 6 5 5 5 6 6 7 7 7 7 7 7 8 8 8 7 7 7 7 7 7 7 8 8 8 9 9 10 9 10 9 9 8 8 7 7 8 7 7 6 6 7 6 7 7 7 7 8 8 8
3 3 3 4 3 3 4 5 5 3 3 3 2 1 1 2 2 2 2 2 3 3 2 3 2 1 2 2 3 3 5 5 5 6 5 6 6 5 5 5 6 6 6 7 7 7 7 7 7 8 8 7 7 7 7 7 7 7 7 8 8 9 9 8 8 8 7 6 7 7 7 7 6 6 6 6 5 6 6 6 6 6 6 6 7
5 4 3 4 5 3 2 3 4 6 4 4 3 2 3 3 2 2 2 2 2 2 2 3 3 3 3 3 5 2 1 3 4 4 5 4 5 5 5 5 5 6 6 6 7 7 6 7 7 7 7 7 7 7 7 7 7 7 7 8 8 8 8 9 9 8 8 7 7 7 6 6 6 6 6 5 5 6 6 6 6 6 6 7 7
4 4 3 4 4 3 3 3 6 3 3 2 2 3 3 3 3 3 3 3 2 1 2 2 2 4 4 6 6 4 2 3 3 4 5 4 5 5 5 5 5 4 5 5 6 7 7 6 6 6 6 7 7 7 7 7 7 7 7 7 8 8 8 8 8 8 8 7 7 6 6 6 6 6 6 5 6 6 6 6 5 6 6 6 6
5 6 6 6 5 5 6 5 1 2 1 1 3 4 3 3 4 3 3 2 2 1 1 2 2 2 3 5 4 4 3 4 4 4 4 5 5 5 5 5 5 5 5 4 4 5 5 5 5 5 5 5 6 6 6 6 6 6 7 7 7 8 8 8 9 9 8 7 7 7 7 6 6 6 6 6 5 6 6 6 6 6 6 6 6
5 4 4 5 5 3 2 1 2 3 2 3 1 2 3 5 3 2 2 2 3 1 2 3 3 3 4 3 3 3 3 4 4 4 5 5 6 5 6 6 5 5 6 5 5 5 5 6 6 6 5 5 5 4 4 4 5 5 6 7 7 8 8 8 8 8 7 7 6 6 6 6 6 6 6 6 6 6 6 6 6 5 5 5 5
3 4 5 5 4 4 2 1 3 3 3 2 2 2 4 4 4 3 2 3 4 2 3 4 4 4 4 4 5 4 4 3 4 4 4 4 5 6 6 5 5 5 5 5 4 5 5 6 6 5 6 6 5 5 5 4 4 4 4 6 6 7 7 7 6 6 5 6 7 7 6 5 6 5 5 5 5 5 6 5 4 4 5 4 5
4 4 5 6 5 4 2 3 3 4 6 6 5 4 4 4 3 3 3 3 3 3 4 4 4 4 5 5 5 4 4 4 5 4 4 5 5 6 5 5 5 5 5 4 4 4 5 5 6 5 5 5 6 5 6 5 5 5 4 4 4 3 4 5 5 6 6 6 6 5 6 6 6 5 5 4 4 5 5 5 5 5 5 4 4
4 4 7 6 7 5 4 3 3 4 4 4 4 7 6 6 4 4 3 4 4 3 4 5 4 6 6 6 6 6 4 4 5 4 5 5 4 6 5 4 5 5 5 5 4 3 4 6 5 5 5 4 4 5 6 6 5 6 5 5 5 6 6 6 5 4 5 5 5 5 5 5 6 6 7 5 5 5 5 5 4 4 5 5 4
5 4 5 6 5 5 4 4 4 4 4 5 7 7 7 6 4 4 4 5 4 4 5 4 5 6 4 5 5 6 5 5 4 5 5 5 5 5 4 4 5 5 5 6 5 5 5 5 5 5 5 5 5 5 5 5 5 5 5 5 5 6 7 7 5 6 5 5 5 5 4 6 5 5 5 5 5 4 6 5 4 5 5 5 5
5 4 4 5 6 7 6 5 6 5 7 7 7 6 6 5 6 5 6 6 5 5 4 6 7 5 5 6 5 5 5 4 5 6 6 6 5 5 5 4 5 5 4 6 6 5 6 5 5 5 4 4 4 4 4 4 5 6 6 6 7 10 10 10 6 6 7 5 6 6 5 5 5 5 5 5 5 4 4 4 4 4 3 4 5
5 6 5 6 7 7 5 5 6 5 5 5 7 7 7 5 5 6 7 6 4 5 5 5 5 6 6 5 5 6 5 6 6 6 6 6 6 5 4 4 4 5 6 5 6 6 6 5 5 5 5 4 3 3 3 4 4 4 4 6 9 10 10 11 9 10 8 5 5 5 4 5 5 5 5 5 4 5 6 4 3 5 4 4 4
7 5 6 6 7 6 5 6 6 5 6 6 7 7 7 7 7 7 7 6 6 7 6 7 6 5 5 6 4 4 5 6 6 6 6 6 5 4 5 5 6 5 5 5 5 6 5 5 5 5 4 4 3 3 4 4 3 3 6 8 9 9 10 9 8 9 9 6 4 5 5 5 5 6 6 6 5 6 5 4 4 4 3 3 2
Wind_Direction
60 56 52 46 48 40 29 25 24 23 26 26 38 42 39 35 33 31 26 32 25 23 21 23 24 25 23 18 10 7 0 0 358 353 351 347 344 339 337 338 331 325 323 318 318 318 319 313 312 311 304 281 267 257 247 240 233 228 223 221 222 213 210 217 224 240 242 217 206 208 203 185 199 199 197 198 185 191 196 197 187 183 187 189 193
64 63 60 57 52 42 36 32 28 21 25 18 24 28 37 32 28 25 34 26 29 26 24 22 22 17 17 13 10 6 1 1 355 354 351 347 345 341 334 333 332 327 327 324 322 320 317 313 309 314 312 299 272 261 251 249 243 241 231 224 221 221 210 216 221 227 235 203 219 221 212 193 207 196 197 193 197 183 193 194 191 188 188 186 186
69 70 68 63 55 48 46 41 31 30 29 24 25 22 22 26 22 25 30 28 23 25 21 19 15 13 13 10 10 8 2 358 355 354 351 348 344 341 336 333 327 324 325 322 321 321 319 317 313 314 316 312 299 273 265 260 252 245 242 233 227 223 215 214 216 225 230 231 205 205 201 203 206 198 201 200 194 187 191 193 188 189 192 186 188
70 69 68 63 54 53 51 43 44 38 39 30 33 27 24 19 18 22 22 29 24 15 16 16 15 12 10 7 8 6 2 357 353 354 351 346 343 340 340 336 327 322 318 313 315 320 318 316 313 313 312 310 306 297 277 268 259 251 247 239 231 228 218 216 217 220 222 232 213 196 202 198 214 201 197 197 190 190 195 191 188 190 188 187 192
68 62 63 61 51 57 51 47 50 43 40 35 35 32 27 23 20 23 20 28 23 17 15 9 14 10 9 4 2 4 0 355 353 352 349 346 342 337 331 327 324 327 322 316 312 312 310 308 306 308 306 305 304 302 292 273 266 256 248 242 238 230 222 216 218 216 221 225 217 207 202 204 207 196 187 188 190 184 196 197 192 192 188 186 188
59 59 52 58 52 51 47 45 44 42 40 36 34 34 31 29 24 24 24 25 21 19 17 12 14 7 4 0 358 0 358 356 356 352 349 343 341 339 335 330 326 324 321 320 315 310 302 300 300 299 299 298 303 303 304 303 294 269 253 245 240 233 227 221 214 216 220 228 218 214 196 198 198 182 187 189 183 186 182 203 191 167 171 171 187
56 56 48 57 59 50 45 41 42 43 39 37 35 33 35 30 30 31 26 27 25 21 15 16 10 8 3 359 359 358 357 357 357 353 349 346 342 339 335 334 333 332 327 327 325 303 291 298 298 298 295 299 303 310 317 316 310 300 273 257 243 234 229 222 215 216 218 221 224 214 205 208 198 196 203 196 192 183 172 181 175 160 171 182 189
63 59 57 56 55 51 50 49 49 46 41 40 39 37 34 31 29 27 28 29 28 22 16 11 6 6 3 1 356 358 357 358 360 355 350 347 342 336 335 333 336 334 336 335 335 333 331 331 329 325 320 321 327 324 326 325 323 312 302 271 251 244 236 223 213 213 215 216 218 215 210 204 209 220 197 184 187 198 189 182 186 172 185 199 194
77 73 66 63 54 52 50 52 53 51 48 45 43 38 35 31 27 24 25 27 22 19 12 7 5 4 2 1 356 356 359 0 4 357 350 347 344 336 335 333 335 335 337 338 337 336 334 332 329 325 324 322 318 319 319 320 321 323 318 307 275 248 246 232 220 211 212 212 219 211 208 209 204 191 182 182 191 191 184 197 195 188 184 188 199
90 82 76 68 56 51 56 56 56 56 50 47 44 41 36 31 28 25 23 17 12 9 7 6 7 4 360 358 358 358 359 359 356 354 355 354 344 339 333 335 336 336 338 338 338 338 335 332 327 329 328 327 325 324 326 325 325 322 311 315 310 282 249 239 227 213 210 211 213 205 206 214 201 197 195 193 192 189 184 185 196 193 180 186 53
88 95 87 77 70 57 57 56 57 57 50 48 43 41 35 30 29 26 21 14 10 3 3 5 5 1 0 357 356 358 355 356 352 352 352 354 352 342 340 336 336 338 341 339 338 337 335 332 330 329 330 331 332 330 327 325 323 321 319 314 303 292 286 258 232 216 213 215 209 206 209 209 206 200 202 187 194 191 185 187 192 179 186 166 182
99 93 92 78 69 67 62 59 57 50 49 43 40 37 34 32 29 23 18 13 6 5 8 0 358 356 356 355 355 353 349 352 354 352 352 352 352 346 335 338 337 340 342 337 334 335 335 333 330 327 326 330 332 331 326 324 321 318 316 312 308 297 270 263 263 235 216 215 208 210 206 211 208 195 202 192 197 189 190 188 194 186 185 191 185
99 88 80 79 73 71 65 63 56 50 41 37 33 35 35 33 28 21 16 3 4 9 359 360 358 355 356 355 350 347 342 350 353 352 352 351 348 346 339 338 337 337 339 337 333 333 334 332 328 327 325 331 333 330 329 325 322 319 313 308 303 291 279 266 256 257 251 228 217 211 207 204 202 206 195 195 185 190 188 193 194 194 195 195 200
95 94 83 79 76 72 71 66 56 41 31 32 32 31 31 24 15 14 14 9 13 5 2 2 356 357 353 350 341 341 341 346 349 352 352 350 347 343 342 337 335 334 335 335 333 330 332 332 328 326 327 330 331 332 330 324 319 315 313 309 301 298 286 261 255 254 249 242 230 224 218 197 212 206 200 189 185 194 189 198 188 194 200 204 203
99 105 98 83 76 70 69 66 62 47 36 33 30 25 17 7 13 7 19 12 10 3 356 355 355 355 347 344 340 343 338 340 347 351 352 351 346 344 342 338 337 337 336 334 331 330 331 330 329 326 327 328 328 332 328 322 318 311 305 300 294 291 286 279 260 240 241 233 243 239 226 209 215 211 196 191 198 197 192 192 189 196 201 205 45
121 113 101 96 90 82 81 72 62 55 51 42 39 22 13 8 9 350 9 360 358 359 358 357 355 346 340 344 345 346 338 339 346 350 350 351 346 347 343 341 340 339 337 338 336 333 331 330 333 331 329 326 327 329 327 321 313 310 304 298 295 293 286 272 257 246 238 238 235 235 230 218 212 207 196 196 201 189 179 155 124 130 161 177 198
137 123 118 115 107 99 95 88 76 68 60 57 43 31 24 13 14 11 19 359 355 357 353 347 341 345 344 345 345 341 336 337 343 348 348 350 349 347 343 342 342 341 340 336 334 334 332 332 336 334 330 327 328 328 325 326 314 311 305 300 293 291 289 284 256 240 235 233 236 235 229 220 213 211 202 196 189 182 178 179 191 179 172 186 189
160 135 130 127 127 121 116 106 97 81 71 69 59 40 28 26 32 17 37 2 358 341 332 343 341 342 343 339 338 340 332 333 341 347 348 349 349 346 342 341 340 341 337 338 337 336 332 333 334 333 329 327 328 327 327 326 318 313 306 299 298 293 287 282 269 245 228 229 236 237 233 224 213 208 201 195 192 182 182 198 181 168 189 191 190
177 150 145 141 138 140 133 115 110 99 84 68 62 51 38 39 2 21 20 9 354 339 346 346 338 339 339 334 332 341 330 333 340 345 347 348 350 346 344 341 343 344 343 338 340 338 333 333 333 332 332 329 328 328 327 328 318 314 309 301 290 284 277 279 269 252 231 218 235 239 247 247 236 213 208 199 190 192 197 196 163 181 192 192 183
200 170 123 134 141 146 142 119 109 101 94 76 60 48 28 34 20 19 8 8 355 352 348 349 345 338 337 339 335 334 334 335 339 344 348 348 350 351 345 351 349 341 342 344 342 338 338 335 333 332 333 332 330 329 328 328 326 314 313 313 303 288 280 279 267 249 242 217 222 221 228 224 219 215 207 197 199 201 204 197 182 184 186 187 185
198 173 122 115 124 136 142 127 113 97 100 100 85 55 36 48 24 27 9 358 3 358 357 352 351 343 339 337 333 337 339 341 339 343 347 348 347 352 349 350 347 341 339 340 341 337 336 335 334 332 334 333 331 331 331 331 330 320 313 311 299 287 280 270 272 241 229 224 223 223 227 219 214 209 203 197 197 203 205 200 196 189 185 186 188
176 144 116 109 121 139 143 134 115 112 92 84 78 54 13 41 42 24 8 8 6 0 359 356 353 345 339 339 340 337 339 339 344 343 346 346 344 349 356 349 348 341 342 343 342 343 339 336 334 332 334 333 334 334 334 335 334 332 326 318 321 331 298 242 258 255 222 213 191 179 202 209 211 210 209 203 194 197 202 201 201 196 194 193 188
148 128 109 107 121 143 154 132 114 107 94 97 97 71 18 33 18 24 19 8 9 3 359 354 354 351 348 347 343 342 344 340 346 347 345 344 342 346 351 350 353 355 349 345 344 337 335 335 332 335 335 337 338 338 335 339 343 339 333 338 345 348 343 302 259 230 158 99 100 100 70 37 324 257 202 163 112 151 192 194 192 189 182 175 189
118 112 110 118 121 131 130 101 82 73 122 106 90 79 33 15 31 23 11 19 7 0 354 352 356 358 353 346 348 348 349 346 344 349 345 342 340 344 348 350 355 357 351 345 339 337 337 338 337 337 339 341 343 342 340 347 347 343 347 348 356 2 2 3 21 25 51 70 67 70 59 55 68 53 5 336 114 94 75 65 70 82 95 86 76
95 94 102 118 128 136 107 101 99 103 27 112 103 87 43 30 27 351 16 11 8 0 347 352 359 351 348 350 343 346 347 348 348 348 346 341 342 344 346 350 353 356 356 349 347 340 336 337 340 342 341 344 346 345 349 349 348 352 355 356 1 13 10 13 15 28 37 28 27 36 51 50 63 69 56 5 55 94 85 69 68 72 87 81 69
89 98 107 104 124 156 121 89 81 75 70 59 94 102 111 69 44 353 16 3 358 358 345 350 353 353 350 345 344 342 343 350 351 347 344 340 339 346 346 349 353 353 355 350 345 341 341 342 344 345 345 347 350 355 352 350 352 0 360 0 7 8 16 19 22 25 25 22 26 17 9 12 39 58 58 33 5 67 88 90 87 75 77 86 79
101 100 98 102 81 77 97 118 102 69 55 60 54 56 39 52 52 350 2 5 353 352 352 351 352 352 350 343 341 341 348 352 352 348 348 345 344 345 350 349 354 355 356 355 353 349 344 347 346 344 349 347 354 356 360 356 360 4 4 2 7 8 11 23 30 31 23 22 18 17 5 354 10 50 59 52 29 39 48 67 81 59 71 82 85
106 100 95 94 87 83 103 80 104 100 33 59 95 31 353 353 28 291 316 327 348 343 348 345 351 353 341 336 335 343 349 351 352 348 338 341 343 350 351 354 358 359 356 354 350 348 349 348 354 359 357 1 1 3 5 2 2 4 5 4 6 8 10 15 27 33 31 25 27 23 22 8 26 37 51 55 37 39 48 55 51 75 55 81 76
116 120 136 100 74 83 95 109 150 136 115 343 270 215 224 246 256 290 249 183 177 228 319 320 337 341 330 322 338 341 346 347 340 328 338 345 352 356 357 358 358 358 353 348 347 351 2 3 4 2 4 1 1 1 2 3 2 3 8 7 8 9 13 19 20 20 20 25 25 31 29 13 15 27 47 54 40 41 34 60 44 77 67 68 71
103 107 111 101 109 82 67 57 65 125 174 238 338 322 248 227 207 220 282 253 223 229 202 239 292 326 322 308 308 330 325 314 324 343 350 351 352 355 356 357 1 358 353 348 348 4 6 4 4 3 360 360 359 2 2 3 0 2 5 7 10 13 13 15 18 16 17 20 21 30 29 21 26 24 33 42 45 44 42 52 55 58 74 73 70
114 125 112 114 126 123 90 60 41 62 118 157 153 336 332 310 240 226 239 269 262 257 250 257 284 291 269 293 318 328 333 341 346 350 355 353 351 351 353 358 360 355 353 354 1 12 4 5 2 2 2 360 2 359 360 0 2 2 4 5 11 12 13 16 11 15 20 23 24 25 24 28 32 29 32 30 40 45 50 51 60 61 65 72 75
138 148 137 142 128 111 98 101 96 96 47 27 65 69 6 343 330 295 249 252 268 276 280 285 299 315 321 301 321 335 344 345 346 355 359 357 353 351 351 1 360 355 348 356 9 6 3 3 2 2 359 2 1 359 0 2 360 4 3 9 11 10 12 11 7 19 21 23 25 27 26 26 26 25 28 26 31 36 44 54 58 63 65 66 68
134 152 158 145 119 122 117 105 111 148 158 124 44 41 242 12 18 330 334 332 285 261 278 298 328 331 348 355 2 359 341 342 350 359 1 359 356 353 349 359 357 354 352 8 9 0 359 0 3 359 1 2 360 360 0 2 2 2 7 8 9 6 9 6 11 23 22 22 24 24 23 23 16 23 31 30 27 30 31 43 51 57 57 62 58
151 155 165 152 117 112 124 137 131 140 143 144 173 204 253 222 265 312 340 344 345 343 324 7 26 17 7 1 358 358 352 350 353 2 4 1 358 354 359 1 351 355 6 6 1 360 355 358 357 360 358 360 360 1 4 4 5 5 5 8 7 7 7 8 19 19 20 19 23 21 19 21 22 21 25 30 28 31 37 36 45 58 60 63 68
146 159 156 143 126 148 167 155 150 149 153 168 189 168 185 236 219 244 290 315 321 299 282 314 348 29 352 340 350 352 351 350 357 2 5 7 5 354 11 6 356 353 358 6 3 359 356 357 353 351 354 356 355 359 3 4 6 7 7 7 10 9 11 14 17 16 18 18 22 21 21 22 19 25 30 34 32 33 30 35 36 46 58 59 64
157 162 168 146 135 155 164 172 172 171 175 198 190 174 182 164 152 247 257 242 253 289 310 284 289 302 321 338 349 344 348 353 358 0 5 11 9 18 19 357 357 354 356 357 358 352 353 354 352 348 349 352 353 356 355 0 4 6 6 10 11 13 14 17 16 18 18 22 22 23 24 24 24 21 27 36 37 36 37 36 39 38 47 55 58
176 173 154 163 175 171 177 180 187 198 205 216 162 169 162 172 107 99 63 300 329 306 265 291 346 345 336 325 344 340 338 351 349 355 8 8 14 25 17 3 356 351 359 353 353 351 354 349 349 347 352 351 353 353 354 359 357 3 6 11 11 15 14 18 21 21 21 19 19 22 28 26 22 24 30 37 31 32 30 34 41 42 42 47 57
183 181 146 158 168 162 173 190 215 216 210 232 267 15 69 76 165 73 5 319 312 339 339 325 25 7 323 305 324 337 321 328 351 8 4 6 9 7 360 358 359 4 352 349 351 349 348 342 348 348 348 353 352 354 356 357 355 0 5 7 11 11 12 15 18 24 23 23 19 16 20 26 23 20 26 39 34 28 26 27 32 37 39 37 45
179 228 174 144 169 181 189 192 211 210 241 251 290 4 257 258 313 336 309 310 325 341 320 297 321 295 269 283 317 326 0 6 5 349 341 340 343 358 357 357 357 353 354 350 345 350 344 344 342 345 348 354 352 353 357 355 354 357 358 8 12 12 12 10 11 13 19 16 13 11 16 19 23 26 28 32 28 26 29 29 32 41 48 50 51
205 236 223 171 175 203 177 202 209 202 221 211 257 299 280 238 241 252 274 309 316 315 311 294 292 266 265 297 297 347 19 353 339 331 332 338 338 337 356 356 348 345 348 346 344 342 344 341 343 346 346 347 354 352 354 356 360 355 360 7 9 12 9 9 7 9 10 10 14 11 13 11 13 25 30 26 26 33 36 35 37 44 55 63 60
202 209 209 186 183 157 169 210 219 226 214 207 211 231 247 237 223 222 232 260 263 278 288 256 248 255 259 249 264 265 34 324 324 323 322 318 322 326 336 337 337 338 341 343 338 336 341 340 342 347 348 350 350 359 355 1 1 3 7 6 9 9 6 9 8 7 3 8 14 13 12 10 12 23 28 12 23 40 38 42 44 46 50 52 55
174 182 209 183 170 153 171 216 229 227 208 208 210 223 241 230 205 201 228 256 277 270 275 276 261 254 262 262 272 277 294 298 303 319 321 322 321 320 313 317 322 322 325 334 332 333 336 339 342 349 352 350 351 354 1 9 5 4 5 11 11 8 8 3 3 7 5 0 6 14 17 21 20 26 24 22 26 28 39 38 43 46 50 52 53
177 188 190 169 162 165 187 226 190 178 164 211 236 225 213 187 196 205 231 261 269 249 245 239 259 274 261 256 283 315 301 295 306 309 307 306 308 308 309 310 313 311 310 313 317 325 329 331 340 349 349 349 348 351 356 355 354 7 10 8 10 11 6 1 4 3 1 360 359 7 18 25 29 28 25 25 25 41 36 35 37 45 44 54 58
178 178 182 180 176 163 179 155 223 208 183 215 202 190 176 205 194 187 225 258 277 238 220 224 218 225 247 267 285 300 284 290 300 299 304 307 306 305 306 309 313 323 332 338 335 336 339 346 345 339 345 353 356 355 360 359 7 18 13 7 10 10 5 1 1 354 349 345 353 7 10 15 26 32 34 22 29 39 32 34 36 35 42 42 51
160 179 181 181 173 183 190 187 214 184 199 155 178 187 186 183 203 217 218 250 270 252 223 216 205 214 238 257 256 253 262 268 277 292 298 298 300 302 304 310 313 319 324 330 329 337 341 342 342 344 344 342 349 352 351 353 3 13 11 16 17 9 352 339 333 322 324 350 2 3 8 21 24 25 28 29 34 41 37 33 35 37 39 35 62
178 193 187 184 186 192 166 219 192 164 180 175 170 172 199 203 214 212 229 242 249 237 221 204 206 211 224 240 248 251 256 260 270 268 281 289 291 293 296 302 308 311 310 308 319 336 331 331 335 333 331 331 337 341 351 355 357 1 4 10 359 339 317 312 320 342 358 3 359 357 357 16 19 19 25 38 51 60 57 36 43 53 60 48 45
167 204 197 180 189 192 188 197 161 184 201 191 179 184 198 212 209 224 232 232 236 232 218 209 198 220 229 236 242 246 245 244 255 267 265 271 283 287 296 305 313 315 318 321 327 336 331 331 330 329 321 321 331 343 350 355 356 358 358 358 358 354 351 346 345 352 353 346 349 12 24 27 16 9 10 26 50 58 64 50 45 45 48 63 62
182 201 219 194 187 184 200 190 193 201 196 205 196 199 205 206 200 210 224 235 239 232 230 223 218 227 227 243 243 248 247 246 255 259 268 273 274 281 291 299 303 304 313 316 318 325 325 320 323 327 327 329 336 345 345 347 355 356 357 353 356 347 346 351 353 355 353 354 1 12 29 38 28 20 15 31 37 38 56 36 37 40 47 55 60
180 193 223 208 195 200 188 195 196 197 204 202 207 211 214 207 211 213 221 226 224 227 214 215 232 235 229 239 245 248 251 254 260 265 264 262 266 273 276 286 294 300 310 308 307 313 316 316 321 322 317 309 323 340 340 345 349 351 351 351 345 346 351 357 359 354 349 358 5 9 20 35 40 29 20 26 27 37 62 55 56 53 51 55 55
196 194 209 213 197 207 195 193 201 209 213 205 198 208 210 209 214 218 220 223 235 246 242 232 234 232 228 240 242 244 241 242 245 251 254 261 261 264 274 281 288 292 295 294 298 302 306 306 310 315 318 312 321 322 326 331 339 347 346 341 345 352 353 351 352 1 2 1 358 358 18 36 31 34 29 26 23 35 39 30 45 60 53 51 53
209 205 209 213 201 193 178 183 206 214 205 211 213 209 206 207 214 215 211 210 214 225 229 227 232 238 238 235 236 235 235 240 243 245 252 259 259 263 265 271 274 280 289 290 291 293 295 301 305 305 309 304 299 300 306 313 329 340 341 344 351 354 352 358 352 344 349 356 3 6 29 37 39 29 19 16 19 28 15 17 30 45 51 50 9